China Lake, CA

2:19 PM PDT on March 26, 2017 (GMT -0700)
China Lake NAWS

Weather History for KNID - April, 2013

Change the Weather History Date:

Friday, April 19, 2013

  Actual Average Record
Temperature  
Mean Temperature 60 °F -  
Max Temperature 80 °F 74 °F 93 °F (2012)
Min Temperature 39 °F 50 °F 37 °F (2007)
Degree Days  
Heating Degree Days 6    
Growing Degree Days 10 (Base 50)    
Moisture  
Dew Point 11 °F    
Average Humidity 15    
Maximum Humidity 26    
Minimum Humidity 6    
Precipitation  
Precipitation 0.00 in - - ()
Sea Level Pressure  
Sea Level Pressure 30.09 in    
Wind  
Wind Speed 5 mph (SSW)    
Max Wind Speed 15 mph    
Max Gust Speed 20 mph    
Visibility 10 miles    
Events      
Averages and records for this station are not official NWS values.
T = Trace of Precipitation, MM = Missing Value Source: NWS Daily Summary

Daily Weather History Graph

Daily Weather History Graph

Search for Another Location

Airport or City:

Trip Planner

Search our weather history database for the weather conditions in past years. The results will help you decide how hot, cold, wet, or windy it might be!

Date:

Astronomy

Apr. 19, 2013 Rise Set
Actual Time 6:12 AM PDT 7:27 PM PDT
Civil Twilight 5:45 AM PDT 7:54 PM PDT
Nautical Twilight 5:14 AM PDT 8:26 PM PDT
Astronomical Twilight 4:41 AM PDT 8:59 PM PDT
Moon 1:28 PM PDT (4/19) 2:18 AM PDT (4/19)
Length of Visible Light 14h 08m
Length of Day
13h 15m
Waxing Gibbous, 62% of the Moon is Illuminated
Apr 19
Waxing Gibbous
Apr 25
Full
May 2
Last Quarter
May 9
New
May 17
First Quarter

Hourly Weather History & Observations

Time (PDT) Temp. Windchill Dew Point Humidity Pressure Visibility Wind Dir Wind Speed Gust Speed Precip Events Conditions
12:56 AM 48.9 °F - 3.9 °F 16% 30.21 in 10.0 mi SW 8.1 mph - N/A   Clear
1:56 AM 46.0 °F - 5.0 °F 19% 30.21 in 10.0 mi Calm Calm - N/A   Clear
2:56 AM 42.1 °F 37.7 °F 3.9 °F 21% 30.20 in 10.0 mi SSW 6.9 mph - N/A   Clear
3:56 AM 43.0 °F 38.8 °F 6.1 °F 22% 30.20 in 10.0 mi SW 6.9 mph - N/A   Clear
4:56 AM 42.1 °F 36.6 °F 6.1 °F 23% 30.20 in 10.0 mi SW 9.2 mph - N/A   Clear
5:56 AM 39.9 °F - 7.0 °F 26% 30.20 in 10.0 mi Calm Calm - N/A   Clear
6:56 AM 44.1 °F 41.5 °F 8.1 °F 23% 30.22 in 10.0 mi SW 4.6 mph - N/A   Clear
7:56 AM 46.9 °F - 6.1 °F 19% 30.24 in 10.0 mi Calm Calm - N/A   Clear
8:56 AM 55.0 °F - 5.0 °F 13% 30.23 in 10.0 mi Calm Calm - N/A   Clear
9:56 AM 63.0 °F - 3.9 °F 10% 30.21 in 10.0 mi Calm Calm - N/A   Partly Cloudy
10:56 AM 69.1 °F - 6.1 °F 9% 30.19 in 10.0 mi East 5.8 mph - N/A   Partly Cloudy
11:56 AM 72.0 °F - 9.0 °F 9% 30.16 in 10.0 mi ESE 5.8 mph - N/A   Scattered Clouds
12:56 PM 73.9 °F - 8.1 °F 8% 30.12 in 10.0 mi Variable 3.5 mph - N/A   Mostly Cloudy
1:56 PM 77.0 °F - 8.1 °F 7% 30.09 in 10.0 mi Calm Calm - N/A   Mostly Cloudy
2:56 PM 77.0 °F - 9.0 °F 7% 30.05 in 10.0 mi Variable 4.6 mph - N/A   Mostly Cloudy
3:56 PM 79.0 °F - 8.1 °F 7% 30.00 in 10.0 mi Variable 5.8 mph - N/A   Partly Cloudy
4:56 PM 80.1 °F - 8.1 °F 6% 29.97 in 10.0 mi ESE 8.1 mph 16.1 mph N/A   Partly Cloudy
5:56 PM 80.1 °F - 14.0 °F 8% 29.94 in 10.0 mi SSE 15.0 mph 19.6 mph N/A   Clear
6:56 PM 77.0 °F - 19.9 °F 12% 29.92 in 10.0 mi WSW 8.1 mph - N/A   Clear
7:56 PM 72.0 °F - 21.0 °F 15% 29.91 in 10.0 mi West 8.1 mph - N/A   Clear
8:56 PM 66.0 °F - 21.0 °F 18% 29.92 in 10.0 mi SSW 8.1 mph - N/A   Clear
9:56 PM 63.0 °F - 21.0 °F 20% 29.92 in 10.0 mi South 9.2 mph - N/A   Clear
10:56 PM 63.0 °F - 23.0 °F 22% 29.92 in 10.0 mi SSW 9.2 mph - N/A   Clear
11:56 PM 57.9 °F - 21.9 °F 25% 29.93 in 10.0 mi West 3.5 mph - N/A   Clear